Regional Weather Roundup
Issued by NWS

Home | Current Version | Previous Version | Text Only | Print | Product List | Glossary On
Versions: 1 2 3 4 5 6 7 8 9 10 11 12 13 14 15 16 17 18 19 20 21 22 23 24 25 26 27 28 29 30 31 32 33 34 35 36 37 38 39 40 41 42 43 44 45 46 47 48 49 50
000
ASUS46 KLOX 180612
RWRCA

SOUTHERN CALIFORNIA WEATHER ROUNDUP
NATIONAL WEATHER SERVICE OXNARD CALIFORNIA
1100 PM PDT THU APR 17 2014

NOTE: "FAIR" INDICATES FEW OR NO CLOUDS BELOW 12,000 FEET WITH NO
SIGNIFICANT WEATHER AND/OR OBSTRUCTIONS TO VISIBILITY.

  -  STATIONS PRECEEDED BY AN ASTERISK (*) ARE NOT NWS OR FAA
     STATIONS AND ARE NOT SUBJECT TO NWS AND FAA QUALITY CONTROL.

CAZ041-042-087-180700-
LA AND ORANGE COUNTY COASTAL AREAS


CITY           SKY/WX    TMP DP  RH WIND       PRES   REMARKS
L.A. DOWNTOWN  CLOUDY    62  53  72 SE5       29.92R
L.A. AIRPORT   CLOUDY    62  52  69 SE6       29.91F
LONG BEACH     CLOUDY    61  52  72 SE6       29.91F

CITY           SKY/WX    TMP DP  RH WIND       PRES   REMARKS
AVALON           N/A     59 N/A N/A E1          N/A
FULLERTON      CLOUDY    62  53  72 SE6       29.92S
*GETTY CENTER    N/A     54  52  94 SE2         N/A
HAWTHORNE      CLOUDY    62  50  64 E5        29.91F
*LEO CARRILLO    N/A     59  55  86 CALM        N/A
*LOS ALAMITOS  CLOUDY    62  54  76 SE1       29.91F
*REDONDO BEACH   N/A     61  53  75 CALM      29.89F
SANTA ANA      CLOUDY    62  53  72 S3        29.91F
STA MONICA APT CLOUDY    64  53  67 CALM      29.92S
*UCLA            N/A     59  52  77 CALM      29.89S

$$

CAZ547-548-048-180700-
LA COUNTY VALLEYS AND INLAND EMPIRE


CITY           SKY/WX    TMP DP  RH WIND       PRES   REMARKS
BURBANK        CLOUDY    60  52  74 SE8       29.92S
VAN NUYS       CLOUDY    59  52  77 S5        29.91F

CITY           SKY/WX    TMP DP  RH WIND       PRES   REMARKS
CORONA AIRPORT CLOUDY    59  53  80 W6        29.92R
*CHATSWORTH      N/A     59  53  82 SE3       29.90S
CHINO          CLOUDY    59  54  83 W12       29.93R
*CLAREMONT       N/A     56  52  86 SW7         N/A
MARCH AFB      CLOUDY    57  52  82 SE6       29.92R
ONTARIO        CLOUDY    59  53  80 SW9       29.92R
*PASADENA        N/A     59  54  82 E5          N/A
RIVERSIDE      CLOUDY    59  53  80 VRB5      29.92S
SAN BERNARDINO NOT AVBL
*SAN GABRIEL     N/A     60  52  74 S3        29.90S
*SAN RAFAEL HI   N/A     53  53 100 SE7         N/A
*SAUGUS          N/A     56  53  90 S6G21       N/A
*WHITEMAN AP   NOT AVBL
*WOODLAND HILL   N/A     57  52  82 SE3         N/A

$$

CAZ054-055-180700-
LA AND SAN BERNARDINO COUNTY MOUNTAINS


CITY           SKY/WX    TMP DP  RH WIND       PRES   REMARKS
*ACTON           N/A     55  51  88 S8          N/A
*BIG BEAR AIRP CLOUDY    48  32  53 CALM      30.04S
*BIG PINES       N/A     49  37  64 CALM        N/A
*CHILAO          N/A     54  44  70 W9G28       N/A
MT WILSON NWS    N/A     50  46  87 S8G15       N/A
SANDBERG       CLOUDY    52  46  80 S10       29.95F HAZE
*WARM SPRINGS    N/A     49  49  99 CALM        N/A

$$

CAZ028-029-059-060-099-180700-
ANTELOPE VALLEY AND SURROUNDING AREAS


CITY           SKY/WX    TMP DP  RH WIND       PRES   REMARKS
LANCASTER      CLOUDY    58  50  75 W23       29.86S
PALMDALE       CLOUDY    63  45  51 SW16      29.85R
*POPPY PARK      N/A     56  48  74 SW18        N/A

CITY           SKY/WX    TMP DP  RH WIND       PRES   REMARKS
29 PALMS       CLOUDY    72  35  25 S3        29.89F
BARSTOW/DAGGET MOCLDY    73  37  27 NW6       29.81S
BISHOP         CLOUDY    66  26  22 N9        29.81S
CHINA LAKE     CLOUDY    74  36  25 S16       29.78S
EDWARDS AFB    CLOUDY    67  42  41 SW14      29.83R
MOJAVE         FAIR      64  34  32 SW9       29.85S
NEEDLES        MOCLDY    82  24  12 SW10      29.79S
VICTORVILLE    CLOUDY    64  46  52 S21       29.85F

$$

CAZ039-040-180700-
VENTURA AND SANTA BARBARA COUNTY COAST


CITY           SKY/WX    TMP DP  RH WIND       PRES   REMARKS
CAMARILLO      CLOUDY    61  54  77 N3        29.90F
NWS OXNARD       N/A     60  54  79 N1        29.89F
OXNARD AIRPORT CLOUDY    59  54  83 N3        29.90F
*POINT MUGU    CLOUDY    62  55  77 N3        29.89F HAZE
SBA APT/GOLETA CLOUDY    60  53  77 CALM      29.90F
*SANTA BARBARA   N/A     60  53  78 CALM      29.99S
*VENTURA         N/A     60  54  79 W3        29.93F

$$

CAZ044-045-180700-
VENTURA COUNTY VALLEYS


CITY           SKY/WX    TMP DP  RH WIND       PRES   REMARKS
*SIMI VALLEY     N/A     57  53  86 CALM      29.87F
*OJAI            N/A     58  53  84 W1        29.86R
*FILLMORE        N/A     59  54  85 CALM      29.82S

$$

CAZ053-180700-
VENTURA COUNTY MOUNTAINS


CITY           SKY/WX    TMP DP  RH WIND       PRES   REMARKS
*LOCKWOOD VLY    N/A     50  36  57 MISG        N/A
*ROSE VALLEY     N/A     50  50 100 MISG        N/A

$$

CAZ034-035-036-180700-
CENTRAL COAST AND SANTA YNEZ VALLEY


CITY           SKY/WX    TMP DP  RH WIND       PRES   REMARKS
SAN LUIS OBISP CLOUDY    56  50  80 CALM      29.90R
SANTA MARIA    CLOUDY    56  50  80 CALM      29.91F

CITY           SKY/WX    TMP DP  RH WIND       PRES   REMARKS
*CAL POLY SLO    N/A     55  52  88 CALM        N/A
*CAMBRIA         N/A     53  51  93 W2        29.77F
*LOMPOC        CLOUDY    55  48  76 CALM      29.92F
*PISMO BEACH     N/A     56  52  87 SW1       29.91S
*SANTA YNEZ    CLOUDY    55  50  82 CALM      29.90F

$$

CAZ037-038-051-180700-
SAN LUIS OBISPO COUNTY INTERIOR AND CUYAMA VALLEY


CITY           SKY/WX    TMP DP  RH WIND       PRES   REMARKS
*CUYAMA          N/A     58  47  67 W7        29.69F
PASO ROBLES    MOCLDY    56  46  69 W9        29.87S

$$

CAZ032-033-061-180700-
SOUTHERN DESERTS


CITY           SKY/WX    TMP DP  RH WIND       PRES   REMARKS
BLYTHE         CLOUDY    78  32  18 S8        29.78F
IMPERIAL       CLOUDY    72  44  36 SE5       29.76S
PALM SPRINGS   CLOUDY    75  52  44 NW12      29.81F
THERMAL        CLOUDY    72  46  39 SW5       29.75F

$$

ELSEWHERE ACROSS THE WESTERN UNITED STATES AND MEXICO


CITY           SKY/WX    TMP DP  RH WIND       PRES   REMARKS
DENVER, CO     MOCLDY    45  32  60 S16       30.00S
GRAND CANYON,  MOCLDY    39  16  39 CALM      30.12F
HONOLULU, HI   PTCLDY    75  66  73 NE7       30.10R
KAHULUI, MAUI  CLEAR     75  68  78 NE15G22   30.08R
LAKE TAHOE, CA MOCLDY    53  35  50 S9G22     29.96F
LAS VEGAS, NV  CLOUDY    78  21  12 S12       29.77F
MAMMOTH LAKES, FAIR      50  30  46 NW10      29.99F
MEXICO CITY, M PTCLDY    61  46  59 NE7       30.34R
PHOENIX, AZ    MOCLDY    82  24  12 W9        29.81S
PORTLAND, OR   CLOUDY    49  43  80 W8        30.01R
RENO, NV       CLOUDY    61  35  37 NE8       29.89R
SALT LAKE CITY MOCLDY    62  28  27 SE14      29.81F
SAN DIEGO, CA  CLOUDY    62  53  72 S6        29.94S
SAN FRANCISCO, MOCLDY    56  49  77 W21       29.88F
SAN JOSE, CA   CLEAR     58  47  66 NW3       29.88S
SEATTLE, WA    CLOUDY    46  41  82 SW15G23   29.88R
TIJUANA, MEX   CLOUDY    59  50  72 S6        29.94

$$

STATION/POSITION TIME  TEMP    WIND        PRES    VSBY  WAVE
                       AIR SEA DIR/SP/G                  HT/PER
                 (UTC) (F)     (DEG/KT/KT) (MB)    (MI)  (FT/S)
POINT ARGUELLO B NOT AVBL
WEST SANTA BARBA 0600   55 55  320/  8/ 10 1012.0F         7/12
POINT CONCEPTION NOT AVBL
EAST SANTA BARBA NOT AVBL
SANTA MONICA BAY 0600   60 61   30/  4/  6 1012.1F         3/13



USA.gov is the U.S. government's official web portal to all federal, state and local government web resources and services.